Location: Cactus School
(34.5700°N, 118.0931°W)
Time: 20:18:06
(UTC-07:00)

SR - All Passes

Search period start: 21 April 2024 00:00
Search period end: 01 May 2024 00:00
Orbit: 577 x 862 km, 66.7° (Epoch: 21 April)

Date Brightness Start Highest point End Pass type
(mag) Time Alt. Az. Time Alt. Az. Time Alt. Az.
21 Apr - 01:49:42 10° SSW 01:55:23 86° ESE 02:00:43 10° NNE visible
21 Apr - 03:35:18 10° WNW 03:37:49 13° NW 03:40:16 10° NNW visible
21 Apr - 10:34:41 10° N 10:38:13 23° NE 10:41:36 10° ESE daylight
21 Apr - 12:16:21 10° NW 12:19:58 26° WSW 12:23:30 10° SSW daylight
22 Apr - 00:58:08 10° S 01:03:22 39° ESE 01:08:19 10° NE visible
22 Apr - 02:40:41 10° WSW 02:45:18 26° NW 02:49:43 10° N visible
22 Apr - 09:45:03 10° NE 09:45:39 10° NE 09:46:15 10° NE daylight
22 Apr - 11:23:43 10° NNW 11:28:05 72° WSW 11:32:15 10° SSE daylight
23 Apr - 00:07:51 10° SSE 00:11:29 18° ESE 00:15:01 10° ENE visible
23 Apr - 01:47:30 10° SW 01:53:01 55° WNW 01:58:12 10° NNE visible
23 Apr - 10:31:46 10° NNW 10:35:57 42° ENE 10:39:57 10° SE daylight
23 Apr - 12:15:17 10° WNW 12:17:17 13° WSW 12:19:16 10° SW daylight
24 Apr - 00:55:16 10° SSW 01:00:53 70° ESE 01:06:10 10° NNE visible
24 Apr - 02:39:52 10° W 02:43:09 16° NW 02:46:21 10° NNW visible
24 Apr - 09:40:30 10° N 09:43:33 18° NE 09:46:31 10° E daylight
24 Apr - 11:21:35 10° NW 11:25:29 34° WSW 11:29:19 10° S daylight
25 Apr - 00:03:59 10° S 00:08:53 31° ESE 00:13:33 10° NE visible
25 Apr - 01:45:45 10° WSW 01:50:42 32° WNW 01:55:22 10° N visible
25 Apr - 10:29:08 10° NNW 10:33:30 85° ENE 10:37:42 10° SSE daylight
25 Apr - 23:14:18 10° SE 23:17:01 14° ESE 23:19:40 10° ENE night (unlit)
26 Apr - 00:52:50 10° SW 00:58:25 68° WNW 01:03:40 10° NNE visible
26 Apr - 09:37:20 10° N 09:41:17 32° ENE 09:45:05 10° ESE daylight
26 Apr - 11:19:57 10° WNW 11:22:47 17° WSW 11:25:34 10° SSW daylight
27 Apr - 00:00:49 10° S 00:06:18 55° ESE 00:11:28 10° NE visible
27 Apr - 01:44:33 10° W 01:48:26 19° NW 01:52:09 10° N visible
27 Apr - 08:46:22 10° NNE 08:48:47 14° NE 08:51:10 10° E daylight
27 Apr - 10:26:46 10° NW 10:30:55 46° WSW 10:34:56 10° S daylight
27 Apr - 23:09:50 10° SSE 23:14:19 25° ESE 23:18:35 10° NE visible
28 Apr - 00:50:49 10° SW 00:56:00 39° WNW 01:00:53 10° N visible
28 Apr - 09:34:30 10° NNW 09:38:50 64° ENE 09:43:00 10° SE daylight
28 Apr - 22:21:39 10° ESE 22:22:27 10° ESE 22:23:17 10° E night (unlit)
28 Apr - 23:58:07 10° SSW 00:03:45 85° WNW 00:09:01 10° NNE visible
29 Apr - 01:44:30 10° WNW 01:46:15 11° NW 01:47:58 10° NNW visible
29 Apr - 08:42:52 10° N 08:46:30 25° NE 08:50:02 10° ESE daylight
29 Apr - 10:24:48 10° NW 10:28:10 23° WSW 10:31:29 10° SSW daylight
29 Apr - 23:06:21 10° S 23:11:39 43° ESE 23:16:37 10° NE visible
30 Apr - 00:49:17 10° WSW 00:53:37 23° NW 00:57:45 10° N visible
30 Apr - 07:52:30 10° NNE 07:53:55 11° NE 07:55:18 10° ENE daylight
30 Apr - 09:31:57 10° NNW 09:36:13 62° WSW 09:40:21 10° SSE daylight
30 Apr - 22:15:45 10° SSE 22:19:40 20° ESE 22:23:25 10° ENE visible
